Weather History for KDEN - February, 2013

Change the Weather History Date:

Monday, February 11, 2013

  Actual Average Record
Temperature  
Mean Temperature 20 °F 32 °F  
Max Temperature 31 °F 45 °F 73 °F (1951)
Min Temperature 8 °F 18 °F -20 °F (1899)
Degree Days  
Heating Degree Days 45 33  
Month to date heating degree days 329 373  
Since 1 July heating degree days 3629 3904  
Cooling Degree Days 0 0  
Month to date cooling degree days 0 0  
Year to date cooling degree days 0 0  
Moisture  
Dew Point 9 °F    
Average Humidity 62    
Maximum Humidity 80    
Minimum Humidity 43    
Precipitation  
Precipitation T in 0.01 in 0.39 in (1958)
Month to date precipitation 0.01 0.14  
Year to date precipitation 0.32 0.55  
Snow  
Snow 0.00 in - - ()
Month to date snowfall  
Since 1 July snowfall  
Snow Depth -    
Sea Level Pressure  
Sea Level Pressure 30.09 in    
Wind  
Wind Speed 7 mph (SW)    
Max Wind Speed 13 mph    
Max Gust Speed 16 mph    
Visibility 10 miles    
Events Snow    
T = Trace of Precipitation, MM = Missing Value Source: NWS Daily Summary

Daily Weather History Graph

Daily Weather History Graph

Search for Another Location

Airport or City:

Trip Planner

Search our weather history database for the weather conditions in past years. The results will help you decide how hot, cold, wet, or windy it might be!

Date:

Astronomy

Feb. 11, 2013 Rise Set
Actual Time 6:55 AM MST 5:30 PM MST
Civil Twilight 6:27 AM MST 5:58 PM MST
Nautical Twilight 5:56 AM MST 6:30 PM MST
Astronomical Twilight 5:24 AM MST 7:01 PM MST
Moon 7:21 AM MST (2/11) 7:29 PM MST (2/11)
Length of Visible Light 11h 30m
Length of Day
10h 34m
Waxing Crescent, 3% of the Moon is Illuminated
Feb 11
Waxing Crescent
Feb 17
First Quarter
Feb 25
Full
Mar 4
Last Quarter
Mar 11
New

Hourly Weather History & Observations

Time (MST) Temp. Windchill Dew Point Humidity Pressure Visibility Wind Dir Wind Speed Gust Speed Precip Events Conditions
12:53 AM 18.0 °F 9.8 °F 10.0 °F 71% 30.09 in 10.0 mi ENE 5.8 mph - 0.00 in Snow Light Snow
1:53 AM 16.0 °F 8.8 °F 8.1 °F 71% 30.12 in 10.0 mi SE 4.6 mph - 0.00 in   Mostly Cloudy
2:32 AM 14.0 °F 2.9 °F 6.8 °F 73% 30.02 in 10.0 mi SE 8.1 mph - N/A   Mostly Cloudy
2:53 AM 14.0 °F 2.0 °F 8.1 °F 77% 30.12 in 10.0 mi SSE 9.2 mph - N/A   Mostly Cloudy
3:27 AM 10.4 °F -1.5 °F 5.0 °F 79% 30.01 in 10.0 mi SE 8.1 mph - N/A   Scattered Clouds
3:53 AM 10.9 °F -1.8 °F 3.9 °F 73% 30.10 in 10.0 mi SSE 9.2 mph - N/A   Scattered Clouds
4:53 AM 8.1 °F -5.3 °F 3.0 °F 80% 30.13 in 10.0 mi SSE 9.2 mph - N/A   Scattered Clouds
5:53 AM 10.0 °F -3.7 °F 3.9 °F 76% 30.14 in 10.0 mi SSE 10.4 mph - N/A   Scattered Clouds
6:53 AM 10.0 °F -2.9 °F 3.0 °F 73% 30.15 in 10.0 mi SSE 9.2 mph - N/A   Scattered Clouds
7:53 AM 14.0 °F 3.9 °F 7.0 °F 74% 30.17 in 10.0 mi South 6.9 mph - N/A   Scattered Clouds
8:53 AM 21.0 °F 12.4 °F 12.9 °F 71% 30.13 in 10.0 mi SW 6.9 mph - N/A   Mostly Cloudy
9:53 AM 25.0 °F 17.1 °F 10.9 °F 55% 30.10 in 10.0 mi SSW 6.9 mph 16.1 mph N/A   Mostly Cloudy
10:53 AM 26.1 °F 19.4 °F 10.9 °F 53% 30.09 in 10.0 mi SW 5.8 mph - N/A   Mostly Cloudy
11:53 AM 27.0 °F 18.0 °F 10.9 °F 51% 30.06 in 10.0 mi WNW 9.2 mph - N/A   Mostly Cloudy
12:53 PM 28.0 °F 20.0 °F 10.9 °F 49% 30.03 in 10.0 mi West 8.1 mph - N/A   Mostly Cloudy
1:53 PM 30.0 °F 23.2 °F 10.0 °F 43% 30.01 in 10.0 mi West 6.9 mph - N/A   Mostly Cloudy
2:53 PM 30.9 °F - 10.0 °F 42% 30.01 in 10.0 mi Calm Calm - N/A   Mostly Cloudy
3:53 PM 28.9 °F 22.8 °F 10.0 °F 45% 30.04 in 10.0 mi West 5.8 mph - N/A   Mostly Cloudy
4:53 PM 27.0 °F 18.0 °F 10.0 °F 49% 30.07 in 10.0 mi WNW 9.2 mph - N/A   Mostly Cloudy
5:53 PM 26.1 °F 15.6 °F 10.9 °F 53% 30.09 in 10.0 mi WNW 11.5 mph - N/A   Mostly Cloudy
6:53 PM 25.0 °F 15.5 °F 10.9 °F 55% 30.11 in 10.0 mi WNW 9.2 mph - N/A   Mostly Cloudy
7:53 PM 25.0 °F 17.1 °F 10.9 °F 55% 30.10 in 10.0 mi West 6.9 mph - N/A   Mostly Cloudy
8:53 PM 25.0 °F 18.1 °F 10.9 °F 55% 30.09 in 10.0 mi WSW 5.8 mph - N/A   Mostly Cloudy
9:53 PM 23.0 °F 15.8 °F 10.0 °F 58% 30.08 in 10.0 mi West 5.8 mph - N/A   Scattered Clouds
10:53 PM 21.0 °F 14.6 °F 10.0 °F 63% 30.08 in 10.0 mi WSW 4.6 mph - N/A   Mostly Cloudy
11:53 PM 19.9 °F 14.9 °F 10.0 °F 65% 30.08 in 10.0 mi WNW 3.5 mph - N/A   Mostly Cloudy